カタログに戻る

COSMOS 675

運用中軍事LEO
NORAD 7424·PAYLOAD·🇷🇺 Russia

打ち上げ Aug 29, 1974 から Plesetsk Cosmodrome

Loading…

次のパス (今後24時間)

TLE

最新Source: Space-Track

元期: Sep 14, 2026, 13:06 UTC

1 07424U 74069A   26257.54611063 -.00000016  00000-0  15165-6 0  9993
2 07424  74.0560 101.8492 0038104 168.7076 219.7957 12.67187503407514

AllMySatでCOSMOS 675をリアルタイム追跡

Download on the App Store